Main page
METAR-TAF:

METAR-TAF

Airports :

New Bedford Regional Airport

New Bedford, Massachusetts, United States

latitude: 41-40-31N, longitude: 070-57-25W, elevation: 79 ft

Current weather observation

The report was made 1 hour and 1 minutes ago, at 01:53 UTC
Wind 3 mph from the South/Southeast
Temperature 39°F
Humidity 100%
Pressure 30.00 in. Hg
Visibility: 10 miles
Clear sky

METAR: KEWB 250153Z 16003KT 10SM CLR 04/04 A3000 RMK AO2 SLP161 T00440039

Time: 21:54 (02:54 UTC)


TAF: missing

Weather observations and forecasts of more than 4000 airports (METAR and TAF reports).

The available stations are represented by yellow and red dots on the map.

Hover mouse over dot to see the name of the station.

Then click to see weather observations and forecasts.

To change the map : click on the green buttons with a black cross to zoom in, on the green button with a dash to zoom out, or on the green arrows for adjacent maps.


METAR-TAF: